,,PA_Meas_PMT16A,,PR_Meas_QMR101_102,,RH_Meas_QMH101,,SR_Meas_QMS101,,TA_Meas_QMH101,,GenWind,,GenWind,
time,status,PA,status,PR,status,RH,status,SR,status,TA,status,DirAvg,status,SpdAvg,
2011-06-15, 00:00:05,VALID,919.31,VALID,0,VALID,95.1783,VALID,0,VALID,20.9495,VALID,1,VALID,0.268359,
2011-06-15, 00:01:05,VALID,919.293,VALID,0,VALID,95.1402,VALID,0,VALID,20.93,VALID,1,VALID,0.340625,
2011-06-15, 00:02:05,VALID,919.316,VALID,0,VALID,95.1021,VALID,0,VALID,20.891,VALID,1,VALID,0.417969,
2011-06-15, 00:03:05,VALID,919.285,VALID,0,VALID,95.0716,VALID,0,VALID,20.8714,VALID,1,VALID,0.192969,
2011-06-15, 00:04:04,VALID,919.29,VALID,0,VALID,95.0183,VALID,0,VALID,20.8309,VALID,1,VALID,0.215625,
2011-06-15, 00:05:04,VALID,919.271,VALID,0,VALID,95.0792,VALID,0,VALID,20.8324,VALID,1,VALID,0.121875,
2011-06-15, 00:06:04,VALID,919.282,VALID,0,VALID,95.003,VALID,0,VALID,20.8129,VALID,1,VALID,0.416406,
2011-06-15, 00:07:04,VALID,919.25,VALID,0,VALID,94.8734,VALID,0,VALID,20.7739,VALID,1,VALID,0.291406,
2011-06-15, 00:08:04,VALID,919.229,VALID,0,VALID,94.7896,VALID,0,VALID,20.7544,VALID,1,VALID,0.397656,
2011-06-15, 00:09:04,VALID,919.241,VALID,0,VALID,94.6981,VALID,0.107441,VALID,20.7349,VALID,1,VALID,0.416797,
2011-06-15, 00:10:04,VALID,919.206,VALID,0,VALID,94.6905,VALID,0,VALID,20.6959,VALID,1,VALID,0.366016,
2011-06-15, 00:11:04,VALID,919.194,VALID,0,VALID,94.8429,VALID,0,VALID,20.6553,VALID,1,VALID,0.366406,
2011-06-15, 00:12:04,VALID,919.255,VALID,0,VALID,94.8658,VALID,0.107441,VALID,20.6553,VALID,1,VALID,0,
2011-06-15, 00:13:04,VALID,919.231,VALID,0,VALID,95.0183,VALID,0,VALID,20.6569,VALID,1,VALID,0,
2011-06-15, 00:14:04,VALID,919.253,VALID,0,VALID,95.2088,VALID,0,VALID,20.6764,VALID,1,VALID,0,
2011-06-15, 00:15:04,VALID,919.252,VALID,0,VALID,95.3308,VALID,0,VALID,20.6943,VALID,1,VALID,0,
2011-06-15, 00:16:04,VALID,919.258,VALID,0,VALID,95.1631,VALID,0,VALID,20.6764,VALID,1,VALID,0.212891,
2011-06-15, 00:17:04,VALID,919.232,VALID,0,VALID,95.1402,VALID,0,VALID,20.6764,VALID,1,VALID,0.402344,
2011-06-15, 00:18:04,VALID,919.218,VALID,0,VALID,95.2317,VALID,0,VALID,20.6569,VALID,1,VALID,0.513672,
2011-06-15, 00:19:04,VALID,919.249,VALID,0,VALID,95.3232,VALID,0.107441,VALID,20.6959,VALID,1,VALID,0,
2011-06-15, 00:20:04,VALID,919.278,VALID,0,VALID,95.3842,VALID,0,VALID,20.6959,VALID,1,VALID,0.00273437,
2011-06-15, 00:21:04,VALID,919.274,VALID,0,VALID,95.4147,VALID,0,VALID,20.7154,VALID,1,VALID,0,
2011-06-15, 00:22:04,VALID,919.295,VALID,0,VALID,95.3766,VALID,0,VALID,20.7154,VALID,1,VALID,0.0253906,
2011-06-15, 00:23:04,VALID,919.255,VALID,0,VALID,95.3308,VALID,0,VALID,20.6959,VALID,1,VALID,0.689062,
2011-06-15, 00:24:04,VALID,919.272,VALID,0,VALID,95.4833,VALID,0,VALID,20.7154,VALID,1,VALID,0.709766,
2011-06-15, 00:25:04,VALID,919.26,VALID,0,VALID,95.5367,VALID,0,VALID,20.6959,VALID,1,VALID,0.88125,
2011-06-15, 00:26:04,VALID,919.211,VALID,0,VALID,95.651,VALID,0,VALID,20.6959,VALID,1,VALID,0.765625,
2011-06-15, 00:27:04,VALID,919.238,VALID,0,VALID,95.7349,VALID,0,VALID,20.6959,VALID,1,VALID,0.666797,
2011-06-15, 00:28:04,VALID,919.205,VALID,0,VALID,95.834,VALID,0,VALID,20.7154,VALID,1,VALID,0.25625,
2011-06-15, 00:29:04,VALID,919.228,VALID,0,VALID,95.9102,VALID,0,VALID,20.7349,VALID,1,VALID,0,
2011-06-15, 00:30:04,VALID,919.198,VALID,0,VALID,95.9864,VALID,0,VALID,20.7349,VALID,1,VALID,0,
2011-06-15, 00:31:04,VALID,919.18,VALID,0,VALID,95.9636,VALID,0,VALID,20.7154,VALID,1,VALID,0,
2011-06-15, 00:32:04,VALID,919.125,VALID,0,VALID,95.9559,VALID,0,VALID,20.7365,VALID,1,VALID,0,
2011-06-15, 00:33:04,VALID,919.101,VALID,0,VALID,95.895,VALID,0,VALID,20.7365,VALID,1,VALID,0,
2011-06-15, 00:34:04,VALID,919.101,VALID,0,VALID,95.8568,VALID,0,VALID,20.717,VALID,1,VALID,0,
2011-06-15, 00:35:04,VALID,919.09,VALID,0,VALID,95.7806,VALID,0,VALID,20.6959,VALID,1,VALID,0,
2011-06-15, 00:36:04,VALID,919.085,VALID,0,VALID,95.7272,VALID,0,VALID,20.6959,VALID,1,VALID,0,
2011-06-15, 00:37:04,VALID,919.116,VALID,0,VALID,95.6891,VALID,0,VALID,20.6764,VALID,1,VALID,0,
2011-06-15, 00:38:04,VALID,919.099,VALID,0,VALID,95.5671,VALID,0,VALID,20.6569,VALID,1,VALID,0,
2011-06-15, 00:39:04,VALID,919.076,VALID,0,VALID,95.5062,VALID,0,VALID,20.6374,VALID,1,VALID,0,
2011-06-15, 00:40:04,VALID,919.074,VALID,0,VALID,95.4452,VALID,0,VALID,20.639,VALID,1,VALID,0,
2011-06-15, 00:41:04,VALID,919.09,VALID,0,VALID,95.4604,VALID,0,VALID,20.5984,VALID,1,VALID,0,
2011-06-15, 00:42:04,VALID,919.072,VALID,0,VALID,95.59,VALID,0,VALID,20.6374,VALID,1,VALID,0,
2011-06-15, 00:43:04,VALID,919.077,VALID,0,VALID,95.6357,VALID,0,VALID,20.6374,VALID,1,VALID,0,
2011-06-15, 00:44:04,VALID,919.051,VALID,0,VALID,95.7272,VALID,0,VALID,20.6374,VALID,1,VALID,0.335547,
2011-06-15, 00:45:04,VALID,919.033,VALID,0,VALID,95.6281,VALID,0,VALID,20.5984,VALID,1,VALID,0.435937,
2011-06-15, 00:46:04,VALID,918.956,VALID,0,VALID,95.6967,VALID,0,VALID,20.6179,VALID,1,VALID,0.475,
2011-06-15, 00:47:04,VALID,918.966,VALID,0,VALID,95.6205,VALID,0,VALID,20.5594,VALID,1,VALID,0.464844,
2011-06-15, 00:48:04,VALID,918.907,VALID,0,VALID,95.7806,VALID,0.107441,VALID,20.5984,VALID,1,VALID,0.210547,
2011-06-15, 00:49:04,VALID,918.908,VALID,0,VALID,95.7806,VALID,0,VALID,20.5999,VALID,1,VALID,0,
2011-06-15, 00:50:04,VALID,918.895,VALID,0,VALID,95.9026,VALID,0,VALID,20.6374,VALID,1,VALID,0.376953,
2011-06-15, 00:51:04,VALID,918.884,VALID,0,VALID,95.9788,VALID,0,VALID,20.6569,VALID,1,VALID,0.786719,
2011-06-15, 00:52:04,VALID,918.851,VALID,0,VALID,95.9559,VALID,0,VALID,20.6374,VALID,1,VALID,0.733984,
2011-06-15, 00:53:04,VALID,918.837,VALID,0,VALID,96.116,VALID,0,VALID,20.6959,VALID,1,VALID,0.903516,
2011-06-15, 00:54:04,VALID,918.887,VALID,0,VALID,96.177,VALID,0,VALID,20.756,VALID,1,VALID,0.758984,
2011-06-15, 00:55:04,VALID,918.901,VALID,0,VALID,96.1389,VALID,0,VALID,20.7365,VALID,1,VALID,0.696875,
2011-06-15, 00:56:04,VALID,918.918,VALID,0,VALID,96.177,VALID,0,VALID,20.7349,VALID,1,VALID,0.630078,
2011-06-15, 00:57:04,VALID,918.912,VALID,0,VALID,96.1389,VALID,0,VALID,20.756,VALID,1,VALID,0.679297,
2011-06-15, 00:58:04,VALID,918.892,VALID,0,VALID,96.1465,VALID,0,VALID,20.7739,VALID,1,VALID,0.696875,
2011-06-15, 00:59:04,VALID,918.881,VALID,0,VALID,96.0322,VALID,0,VALID,20.7544,VALID,1,VALID,0.592188,
2011-06-15, 01:00:04,VALID,918.851,VALID,0,VALID,96.116,VALID,0,VALID,20.7544,VALID,1,VALID,0.89375,
2011-06-15, 01:01:04,VALID,918.816,VALID,0,VALID,96.1313,VALID,0,VALID,20.795,VALID,1,VALID,0.819141,
2011-06-15, 01:02:04,VALID,918.779,VALID,0,VALID,96.1236,VALID,0,VALID,20.795,VALID,1,VALID,0.591406,
2011-06-15, 01:03:04,VALID,918.754,VALID,0,VALID,96.1313,VALID,0,VALID,20.7755,VALID,1,VALID,0.666016,
2011-06-15, 01:04:04,VALID,918.73,VALID,0,VALID,96.1846,VALID,0,VALID,20.7739,VALID,1,VALID,0.694922,
2011-06-15, 01:05:04,VALID,918.71,VALID,0,VALID,96.1465,VALID,0,VALID,20.7755,VALID,1,VALID,0.841406,
2011-06-15, 01:06:04,VALID,918.679,VALID,0,VALID,96.2151,VALID,0,VALID,20.7755,VALID,1,VALID,0.628906,
2011-06-15, 01:07:04,VALID,918.632,VALID,0,VALID,96.2075,VALID,0,VALID,20.7739,VALID,1,VALID,0.416797,
2011-06-15, 01:08:04,VALID,918.62,VALID,0,VALID,96.2075,VALID,0,VALID,20.795,VALID,1,VALID,0.570313,
2011-06-15, 01:09:04,VALID,918.666,VALID,0,VALID,96.1923,VALID,0,VALID,20.7544,VALID,1,VALID,0.998828,
2011-06-15, 01:10:04,VALID,918.658,VALID,0,VALID,96.177,VALID,0,VALID,20.7365,VALID,2,VALID,0.901172,
2011-06-15, 01:11:04,VALID,918.676,VALID,0,VALID,96.0322,VALID,0,VALID,20.6975,VALID,2,VALID,0.606641,
2011-06-15, 01:12:04,VALID,918.679,VALID,0,VALID,96.0932,VALID,0,VALID,20.6764,VALID,2,VALID,0.745703,
2011-06-15, 01:13:04,VALID,918.692,VALID,0,VALID,96.0932,VALID,0,VALID,20.6764,VALID,2,VALID,0.406641,
2011-06-15, 01:14:04,VALID,918.703,VALID,0,VALID,96.0627,VALID,0,VALID,20.678,VALID,2,VALID,0.344531,
2011-06-15, 01:15:04,VALID,918.67,VALID,0,VALID,96.0093,VALID,0,VALID,20.6585,VALID,2,VALID,0.363672,
2011-06-15, 01:16:04,VALID,918.679,VALID,0,VALID,96.055,VALID,0,VALID,20.6179,VALID,2,VALID,0.327344,
2011-06-15, 01:17:04,VALID,918.68,VALID,0,VALID,96.1008,VALID,0,VALID,20.6585,VALID,2,VALID,0.28125,
2011-06-15, 01:18:04,VALID,918.687,VALID,0,VALID,96.0932,VALID,0,VALID,20.6374,VALID,2,VALID,0,
2011-06-15, 01:19:04,VALID,918.65,VALID,0,VALID,96.1389,VALID,0,VALID,20.6569,VALID,2,VALID,0,
2011-06-15, 01:20:04,VALID,918.652,VALID,0,VALID,96.1541,VALID,0,VALID,20.6764,VALID,2,VALID,0,
2011-06-15, 01:21:04,VALID,918.63,VALID,0,VALID,96.177,VALID,0,VALID,20.6975,VALID,2,VALID,0,
2011-06-15, 01:22:04,VALID,918.593,VALID,0,VALID,96.1999,VALID,0,VALID,20.7365,VALID,2,VALID,0,
2011-06-15, 01:23:04,VALID,918.576,VALID,0,VALID,96.1389,VALID,0,VALID,20.7154,VALID,2,VALID,0,
2011-06-15, 01:24:04,VALID,918.56,VALID,0,VALID,95.9026,VALID,0,VALID,20.6975,VALID,2,VALID,0,
2011-06-15, 01:25:04,VALID,918.545,VALID,0,VALID,95.6967,VALID,0,VALID,20.5804,VALID,2,VALID,0.889063,
2011-06-15, 01:26:04,VALID,918.514,VALID,0,VALID,95.9712,VALID,0,VALID,20.5789,VALID,20,VALID,1.24688,
2011-06-15, 01:27:04,VALID,918.529,VALID,0,VALID,96.1389,VALID,0,VALID,20.678,VALID,9,VALID,1.05352,
2011-06-15, 01:28:04,VALID,918.498,VALID,0,VALID,96.1313,VALID,0,VALID,20.678,VALID,10,VALID,1.13945,
2011-06-15, 01:29:04,VALID,918.528,VALID,0,VALID,96.0932,VALID,0,VALID,20.678,VALID,10,VALID,0.513281,
2011-06-15, 01:30:04,VALID,918.545,VALID,0,VALID,96.0855,VALID,0,VALID,20.6975,VALID,10,VALID,0.646875,
2011-06-15, 01:31:04,VALID,918.512,VALID,0,VALID,96.1541,VALID,0,VALID,20.7365,VALID,10,VALID,0.845703,
2011-06-15, 01:32:04,VALID,918.475,VALID,0,VALID,96.2075,VALID,0,VALID,20.7755,VALID,10,VALID,0.676953,
2011-06-15, 01:33:04,VALID,918.463,VALID,0,VALID,96.1694,VALID,0,VALID,20.7349,VALID,10,VALID,0.443359,
2011-06-15, 01:34:04,VALID,918.444,VALID,0,VALID,96.116,VALID,0,VALID,20.756,VALID,10,VALID,0.399219,
2011-06-15, 01:35:04,VALID,918.378,VALID,0,VALID,96.0474,VALID,0,VALID,20.7365,VALID,10,VALID,0.201172,
2011-06-15, 01:36:04,VALID,918.403,VALID,0,VALID,96.055,VALID,0,VALID,20.7154,VALID,10,VALID,0.309375,
2011-06-15, 01:37:04,VALID,918.37,VALID,0,VALID,96.2151,VALID,0,VALID,20.795,VALID,10,VALID,0.699609,
2011-06-15, 01:38:04,VALID,918.39,VALID,0,VALID,96.2075,VALID,0,VALID,20.8129,VALID,10,VALID,0.267578,
2011-06-15, 01:39:04,VALID,918.356,VALID,0,VALID,96.1846,VALID,0,VALID,20.8535,VALID,10,VALID,0.337109,
2011-06-15, 01:40:04,VALID,918.361,VALID,0,VALID,96.1999,VALID,0,VALID,20.8535,VALID,10,VALID,0.585938,
2011-06-15, 01:41:04,VALID,918.317,VALID,0,VALID,96.177,VALID,0,VALID,20.8519,VALID,10,VALID,0.541016,
2011-06-15, 01:42:04,VALID,918.288,VALID,0,VALID,96.0855,VALID,0,VALID,20.8129,VALID,10,VALID,0.668359,
2011-06-15, 01:43:04,VALID,918.29,VALID,0,VALID,95.9941,VALID,0,VALID,20.7739,VALID,10,VALID,0.602734,
2011-06-15, 01:44:04,VALID,918.266,VALID,0,VALID,95.9331,VALID,0,VALID,20.7739,VALID,10,VALID,0.900781,
2011-06-15, 01:45:04,VALID,918.278,VALID,0,VALID,96.0322,VALID,0,VALID,20.7544,VALID,10,VALID,0.584766,
2011-06-15, 01:46:04,VALID,918.291,VALID,0,VALID,96.0398,VALID,0,VALID,20.7544,VALID,10,VALID,0.236719,
2011-06-15, 01:47:04,VALID,918.312,VALID,0,VALID,96.055,VALID,0,VALID,20.7349,VALID,10,VALID,0.3,
2011-06-15, 01:48:04,VALID,918.33,VALID,0,VALID,96.0855,VALID,0,VALID,20.7544,VALID,10,VALID,0.385547,
2011-06-15, 01:49:04,VALID,918.338,VALID,0,VALID,96.1313,VALID,0.107441,VALID,20.7755,VALID,10,VALID,0,
2011-06-15, 01:50:04,VALID,918.355,VALID,0,VALID,96.1084,VALID,0,VALID,20.7544,VALID,10,VALID,0,
2011-06-15, 01:51:04,VALID,918.366,VALID,0,VALID,95.9941,VALID,0,VALID,20.7154,VALID,10,VALID,0,
2011-06-15, 01:52:04,VALID,918.363,VALID,0,VALID,96.0703,VALID,0,VALID,20.7154,VALID,10,VALID,0.00546875,
2011-06-15, 01:53:04,VALID,918.333,VALID,0,VALID,96.0703,VALID,0,VALID,20.7349,VALID,10,VALID,0.172656,
2011-06-15, 01:54:04,VALID,918.351,VALID,0,VALID,96.0474,VALID,0,VALID,20.7154,VALID,10,VALID,0,
2011-06-15, 01:55:04,VALID,918.348,VALID,0,VALID,96.0398,VALID,0,VALID,20.7154,VALID,10,VALID,0,
2011-06-15, 01:56:04,VALID,918.366,VALID,0,VALID,95.9712,VALID,0,VALID,20.6959,VALID,10,VALID,0,
2011-06-15, 01:57:04,VALID,918.347,VALID,0,VALID,95.9331,VALID,0,VALID,20.6959,VALID,10,VALID,0,
2011-06-15, 01:58:04,VALID,918.365,VALID,0,VALID,95.9026,VALID,0,VALID,20.6975,VALID,10,VALID,0,
2011-06-15, 01:59:04,VALID,918.353,VALID,0,VALID,95.651,VALID,0,VALID,20.639,VALID,10,VALID,0,
2011-06-15, 02:00:04,VALID,918.369,VALID,0,VALID,95.4909,VALID,0,VALID,20.5789,VALID,10,VALID,0,
2011-06-15, 02:01:04,VALID,918.334,VALID,0,VALID,95.2927,VALID,0,VALID,20.5999,VALID,10,VALID,0.317187,
2011-06-15, 02:02:04,VALID,918.295,VALID,0,VALID,95.5443,VALID,0,VALID,20.6179,VALID,10,VALID,0.851172,
2011-06-15, 02:03:04,VALID,918.273,VALID,0,VALID,95.6891,VALID,0,VALID,20.6569,VALID,10,VALID,0.428125,
2011-06-15, 02:04:04,VALID,918.276,VALID,0,VALID,95.8797,VALID,0,VALID,20.717,VALID,10,VALID,0.400781,
2011-06-15, 02:05:04,VALID,918.278,VALID,0,VALID,95.9559,VALID,0,VALID,20.7349,VALID,10,VALID,0.736719,
2011-06-15, 02:06:04,VALID,918.275,VALID,0,VALID,95.8416,VALID,0,VALID,20.717,VALID,10,VALID,0.744531,
2011-06-15, 02:07:04,VALID,918.278,VALID,0,VALID,95.8263,VALID,0,VALID,20.6764,VALID,10,VALID,0.284766,
2011-06-15, 02:08:04,VALID,918.265,VALID,0,VALID,96.0245,VALID,0,VALID,20.7349,VALID,10,VALID,0.333594,
2011-06-15, 02:09:04,VALID,918.289,VALID,0,VALID,96.1008,VALID,0,VALID,20.7934,VALID,10,VALID,0.592188,
2011-06-15, 02:10:04,VALID,918.284,VALID,0,VALID,96.1389,VALID,0,VALID,20.8129,VALID,10,VALID,0,
2011-06-15, 02:11:04,VALID,918.304,VALID,0,VALID,96.1236,VALID,0,VALID,20.8324,VALID,10,VALID,0.249219,
2011-06-15, 02:12:04,VALID,918.356,VALID,0,VALID,95.9864,VALID,0,VALID,20.8324,VALID,10,VALID,0.130078,
2011-06-15, 02:13:04,VALID,918.367,VALID,0,VALID,95.8873,VALID,0,VALID,20.7934,VALID,10,VALID,0.257031,
2011-06-15, 02:14:04,VALID,918.396,VALID,0,VALID,95.9331,VALID,0,VALID,20.7934,VALID,10,VALID,0.378906,
2011-06-15, 02:15:04,VALID,918.43,VALID,0,VALID,95.834,VALID,0,VALID,20.7739,VALID,10,VALID,0.00117188,
2011-06-15, 02:16:04,VALID,918.412,VALID,0,VALID,95.7958,VALID,0.107441,VALID,20.7544,VALID,10,VALID,0,
2011-06-15, 02:17:04,VALID,918.436,VALID,0,VALID,95.8111,VALID,0,VALID,20.7544,VALID,10,VALID,0,
2011-06-15, 02:18:04,VALID,918.387,VALID,0,VALID,95.8111,VALID,0,VALID,20.756,VALID,10,VALID,0.521875,
2011-06-15, 02:19:04,VALID,918.385,VALID,0,VALID,95.8492,VALID,0,VALID,20.7544,VALID,10,VALID,0.359766,
2011-06-15, 02:20:04,VALID,918.392,VALID,0,VALID,95.8721,VALID,0,VALID,20.7154,VALID,10,VALID,0.375391,
2011-06-15, 02:21:04,VALID,918.369,VALID,0,VALID,95.7577,VALID,0,VALID,20.7349,VALID,10,VALID,0.726563,
2011-06-15, 02:22:04,VALID,918.35,VALID,0,VALID,95.8797,VALID,0,VALID,20.7349,VALID,10,VALID,0.655078,
2011-06-15, 02:23:04,VALID,918.343,VALID,0,VALID,95.9712,VALID,0,VALID,20.7544,VALID,10,VALID,0.34375,
2011-06-15, 02:24:04,VALID,918.378,VALID,0,VALID,95.9407,VALID,0,VALID,20.7739,VALID,10,VALID,0.233594,
2011-06-15, 02:25:04,VALID,918.37,VALID,0,VALID,95.8645,VALID,0,VALID,20.7349,VALID,10,VALID,0.367969,
2011-06-15, 02:26:04,VALID,918.357,VALID,0,VALID,95.7501,VALID,0,VALID,20.7154,VALID,10,VALID,0.553516,
2011-06-15, 02:27:04,VALID,918.355,VALID,0,VALID,95.7044,VALID,0,VALID,20.6553,VALID,10,VALID,0.177734,
2011-06-15, 02:28:04,VALID,918.339,VALID,0,VALID,95.6815,VALID,0,VALID,20.6569,VALID,10,VALID,0.577734,
2011-06-15, 02:29:04,VALID,918.323,VALID,0,VALID,95.6967,VALID,0,VALID,20.678,VALID,10,VALID,0.344531,
2011-06-15, 02:30:04,VALID,918.312,VALID,0,VALID,95.6662,VALID,0,VALID,20.6569,VALID,10,VALID,0,
2011-06-15, 02:31:04,VALID,918.304,VALID,0,VALID,95.6205,VALID,0,VALID,20.6374,VALID,10,VALID,0.177734,
2011-06-15, 02:32:04,VALID,918.323,VALID,0,VALID,95.59,VALID,0,VALID,20.639,VALID,10,VALID,0,
2011-06-15, 02:33:04,VALID,918.336,VALID,0,VALID,95.4604,VALID,0,VALID,20.5804,VALID,10,VALID,0,
2011-06-15, 02:34:04,VALID,918.285,VALID,0,VALID,95.3689,VALID,0,VALID,20.5414,VALID,10,VALID,0,
2011-06-15, 02:35:04,VALID,918.236,VALID,0,VALID,95.3918,VALID,0,VALID,20.5204,VALID,10,VALID,0.233594,
2011-06-15, 02:36:04,VALID,918.235,VALID,0,VALID,95.3689,VALID,0,VALID,20.5009,VALID,10,VALID,0.105469,
2011-06-15, 02:37:04,VALID,918.268,VALID,0,VALID,95.3994,VALID,0,VALID,20.5009,VALID,10,VALID,0,
2011-06-15, 02:38:04,VALID,918.257,VALID,0,VALID,95.4071,VALID,0.107441,VALID,20.5009,VALID,10,VALID,0.169922,
2011-06-15, 02:39:04,VALID,918.202,VALID,0,VALID,95.3537,VALID,0,VALID,20.5009,VALID,10,VALID,0.168359,
2011-06-15, 02:40:04,VALID,918.198,VALID,0,VALID,95.3232,VALID,0,VALID,20.4813,VALID,10,VALID,0.251172,
2011-06-15, 02:41:04,VALID,918.192,VALID,0,VALID,95.3232,VALID,0,VALID,20.4813,VALID,10,VALID,0,
2011-06-15, 02:42:04,VALID,918.159,VALID,0,VALID,95.3308,VALID,0.107441,VALID,20.4813,VALID,10,VALID,0.604297,
2011-06-15, 02:43:04,VALID,918.175,VALID,0,VALID,95.4147,VALID,0,VALID,20.5414,VALID,10,VALID,0.487109,
2011-06-15, 02:44:04,VALID,918.192,VALID,0,VALID,95.3537,VALID,0,VALID,20.5399,VALID,10,VALID,0,
2011-06-15, 02:45:04,VALID,918.18,VALID,0,VALID,95.3308,VALID,0,VALID,20.5594,VALID,10,VALID,0,
2011-06-15, 02:46:04,VALID,918.138,VALID,0,VALID,95.2927,VALID,0,VALID,20.5609,VALID,10,VALID,0,
2011-06-15, 02:47:04,VALID,918.117,VALID,0,VALID,95.0564,VALID,0,VALID,20.5024,VALID,10,VALID,0.126563,
2011-06-15, 02:48:04,VALID,918.163,VALID,0,VALID,95.1097,VALID,0,VALID,20.5204,VALID,10,VALID,0.332812,
2011-06-15, 02:49:04,VALID,918.09,VALID,0,VALID,95.0335,VALID,0,VALID,20.5009,VALID,10,VALID,0.0515625,
2011-06-15, 02:50:04,VALID,918.075,VALID,0,VALID,94.9039,VALID,0,VALID,20.4813,VALID,10,VALID,0,
2011-06-15, 02:51:04,VALID,918.07,VALID,0,VALID,94.7972,VALID,0,VALID,20.4423,VALID,10,VALID,0,
2011-06-15, 02:52:04,VALID,918.079,VALID,0,VALID,94.8505,VALID,0,VALID,20.4634,VALID,10,VALID,0,
2011-06-15, 02:53:04,VALID,918.061,VALID,0,VALID,94.9039,VALID,0,VALID,20.4228,VALID,10,VALID,0,
2011-06-15, 02:54:04,VALID,918.066,VALID,0,VALID,94.881,VALID,0,VALID,20.4033,VALID,10,VALID,0,
2011-06-15, 02:55:04,VALID,918.058,VALID,0,VALID,94.7972,VALID,0,VALID,20.3659,VALID,10,VALID,0,
2011-06-15, 02:56:04,VALID,918.054,VALID,0,VALID,94.8124,VALID,0,VALID,20.3659,VALID,10,VALID,0,
2011-06-15, 02:57:04,VALID,918.036,VALID,0,VALID,95.0716,VALID,0,VALID,20.3643,VALID,10,VALID,0,
2011-06-15, 02:58:04,VALID,918.011,VALID,0,VALID,94.8048,VALID,0,VALID,20.3058,VALID,10,VALID,0.294141,
2011-06-15, 02:59:04,VALID,918.007,VALID,0,VALID,94.3931,VALID,0,VALID,20.1888,VALID,10,VALID,0.4375,
2011-06-15, 03:00:04,VALID,918.007,VALID,0,VALID,94.5227,VALID,0,VALID,20.1498,VALID,10,VALID,0.568359,
2011-06-15, 03:01:04,VALID,918.016,VALID,0,VALID,95.064,VALID,0,VALID,20.2293,VALID,10,VALID,0.803516,
2011-06-15, 03:02:04,VALID,918.032,VALID,0,VALID,95.186,VALID,0,VALID,20.1693,VALID,10,VALID,0.250781,
2011-06-15, 03:03:04,VALID,918.034,VALID,0,VALID,95.4299,VALID,0,VALID,20.2098,VALID,10,VALID,0.342578,
2011-06-15, 03:04:04,VALID,918.061,VALID,0,VALID,95.4833,VALID,0,VALID,20.1903,VALID,10,VALID,0.571484,
2011-06-15, 03:05:04,VALID,918.094,VALID,0,VALID,95.4147,VALID,0,VALID,20.1708,VALID,10,VALID,0.553516,
2011-06-15, 03:06:04,VALID,918.109,VALID,0,VALID,95.2622,VALID,0,VALID,20.1108,VALID,10,VALID,0.533203,
2011-06-15, 03:07:04,VALID,918.081,VALID,0,VALID,95.2775,VALID,0,VALID,20.0913,VALID,10,VALID,0.504297,
2011-06-15, 03:08:04,VALID,918.061,VALID,0,VALID,95.3003,VALID,0,VALID,20.1123,VALID,10,VALID,0.569141,
2011-06-15, 03:09:04,VALID,918.094,VALID,0,VALID,95.4147,VALID,0,VALID,20.1303,VALID,10,VALID,0.470313,
2011-06-15, 03:10:04,VALID,918.077,VALID,0,VALID,95.4223,VALID,0,VALID,20.1303,VALID,10,VALID,0.5,
2011-06-15, 03:11:04,VALID,918.08,VALID,0,VALID,95.2165,VALID,0,VALID,20.0913,VALID,10,VALID,0.6125,
2011-06-15, 03:12:04,VALID,918.067,VALID,0,VALID,95.1936,VALID,0,VALID,20.0928,VALID,10,VALID,0.498047,
2011-06-15, 03:13:04,VALID,918.053,VALID,0,VALID,95.1783,VALID,0,VALID,20.0523,VALID,10,VALID,0.534375,
2011-06-15, 03:14:04,VALID,918.027,VALID,0,VALID,95.1936,VALID,0,VALID,20.0523,VALID,10,VALID,0.859375,
2011-06-15, 03:15:04,VALID,918.032,VALID,0,VALID,95.2393,VALID,0,VALID,20.0538,VALID,10,VALID,0.820703,
2011-06-15, 03:16:04,VALID,918,VALID,0,VALID,95.1783,VALID,0,VALID,20.0343,VALID,10,VALID,0.551172,
2011-06-15, 03:17:04,VALID,918.02,VALID,0,VALID,95.4223,VALID,0,VALID,20.0733,VALID,10,VALID,0.689844,
2011-06-15, 03:18:04,VALID,917.995,VALID,0,VALID,95.5138,VALID,0,VALID,20.0928,VALID,10,VALID,0.758594,
2011-06-15, 03:19:04,VALID,917.953,VALID,0,VALID,95.6281,VALID,0,VALID,20.1123,VALID,10,VALID,0.986719,
2011-06-15, 03:20:04,VALID,917.945,VALID,0,VALID,95.8111,VALID,0,VALID,20.1708,VALID,10,VALID,1.05742,
2011-06-15, 03:21:04,VALID,917.917,VALID,0,VALID,95.9254,VALID,0,VALID,20.1693,VALID,10,VALID,0.898438,
2011-06-15, 03:22:04,VALID,917.92,VALID,0,VALID,95.7806,VALID,0,VALID,20.1318,VALID,10,VALID,0.662109,
2011-06-15, 03:23:04,VALID,917.945,VALID,0,VALID,96.0093,VALID,0,VALID,20.1303,VALID,10,VALID,0.7625,
2011-06-15, 03:24:04,VALID,917.916,VALID,0,VALID,96.1618,VALID,0,VALID,20.2098,VALID,10,VALID,0.948828,
2011-06-15, 03:25:04,VALID,917.952,VALID,0,VALID,96.177,VALID,0,VALID,20.1903,VALID,10,VALID,0.823047,
2011-06-15, 03:26:04,VALID,917.919,VALID,0,VALID,96.2151,VALID,0,VALID,20.1888,VALID,10,VALID,0.445313,
2011-06-15, 03:27:04,VALID,917.99,VALID,0,VALID,96.2837,VALID,0,VALID,20.1888,VALID,10,VALID,0.577734,
2011-06-15, 03:28:04,VALID,917.967,VALID,0,VALID,96.4133,VALID,0,VALID,20.2489,VALID,10,VALID,0.438672,
2011-06-15, 03:29:04,VALID,917.95,VALID,0,VALID,96.3676,VALID,0,VALID,20.2668,VALID,10,VALID,0.437891,
2011-06-15, 03:30:04,VALID,917.883,VALID,0,VALID,96.36,VALID,0,VALID,20.2668,VALID,10,VALID,0.407813,
2011-06-15, 03:31:04,VALID,917.858,VALID,0,VALID,96.3371,VALID,0,VALID,20.2473,VALID,10,VALID,0.318359,
2011-06-15, 03:32:04,VALID,917.839,VALID,0,VALID,96.2685,VALID,0,VALID,20.2293,VALID,10,VALID,0.276172,
2011-06-15, 03:33:04,VALID,917.831,VALID,0,VALID,96.3219,VALID,0,VALID,20.2098,VALID,10,VALID,0.664453,
2011-06-15, 03:34:04,VALID,917.841,VALID,0,VALID,96.3905,VALID,0,VALID,20.2278,VALID,10,VALID,0.576563,
2011-06-15, 03:35:04,VALID,917.821,VALID,0,VALID,96.3219,VALID,0,VALID,20.2489,VALID,10,VALID,0.163281,
2011-06-15, 03:36:04,VALID,917.84,VALID,0,VALID,96.3371,VALID,0,VALID,20.2083,VALID,10,VALID,0.198047,
2011-06-15, 03:37:04,VALID,917.812,VALID,0,VALID,96.3524,VALID,0,VALID,20.2293,VALID,10,VALID,0.169531,
2011-06-15, 03:38:04,VALID,917.822,VALID,0,VALID,96.3524,VALID,0,VALID,20.2293,VALID,10,VALID,0.0269531,
2011-06-15, 03:39:04,VALID,917.801,VALID,0,VALID,96.3066,VALID,0,VALID,20.2098,VALID,10,VALID,0,
2011-06-15, 03:40:04,VALID,917.84,VALID,0,VALID,96.3219,VALID,0,VALID,20.2083,VALID,10,VALID,0.466406,
2011-06-15, 03:41:04,VALID,917.817,VALID,0,VALID,96.0627,VALID,0,VALID,20.1513,VALID,10,VALID,0.433594,
2011-06-15, 03:42:04,VALID,917.789,VALID,0,VALID,96.0855,VALID,0,VALID,20.1123,VALID,10,VALID,0.441797,
2011-06-15, 03:43:04,VALID,917.791,VALID,0,VALID,96.0932,VALID,0,VALID,20.0733,VALID,10,VALID,0.475391,
2011-06-15, 03:44:04,VALID,917.762,VALID,0,VALID,96.2685,VALID,0,VALID,20.0928,VALID,10,VALID,0.481641,
2011-06-15, 03:45:04,VALID,917.812,VALID,0,VALID,96.3295,VALID,0,VALID,20.0928,VALID,10,VALID,0.346094,
2011-06-15, 03:46:04,VALID,917.826,VALID,0,VALID,96.3447,VALID,0,VALID,20.0913,VALID,10,VALID,0.5,
2011-06-15, 03:47:04,VALID,917.831,VALID,0,VALID,96.4133,VALID,0,VALID,20.1318,VALID,10,VALID,0.0867188,
2011-06-15, 03:48:04,VALID,917.857,VALID,0,VALID,96.36,VALID,0,VALID,20.1318,VALID,10,VALID,0,
2011-06-15, 03:49:04,VALID,917.831,VALID,0,VALID,96.2533,VALID,0,VALID,20.0928,VALID,10,VALID,0.182031,
2011-06-15, 03:50:04,VALID,917.789,VALID,0,VALID,96.3295,VALID,0,VALID,20.0718,VALID,10,VALID,0.183984,
2011-06-15, 03:51:04,VALID,917.8,VALID,0,VALID,95.9483,VALID,0,VALID,20.0328,VALID,10,VALID,0.569922,